^^
Your Local Weather - Clay, NY Station Historical Data
Daily Summary for March 21, 2017 Units:  Metric    English   Both
« Previous Day
Next Day »
Daily Weekly Monthly Yearly Custom
  High: Low: Average:
Temperature: 9.3 °C 0.2 °C 3.9 °C
Dew Point: 1.1 °C -4.4 °C -1.7 °C
Humidity: 85% 40% 69%
Wind Speed: 12.9km/h 0km/h 3.1km/h
Wind Gust: 25.7km/h - -
Wind- - West
Pressure: 1015.8 hPa 1009.7 hPa -
Precipitation: 0 mm    
Historical Graphs
 
 
Tabular Data for March 21, 2017
Time Temperature Dew Point Pressure Wind Wind Speed Wind Gust Humidity Rainfall Rate (Hourly) solar
00:02 0.9 °C -2.3 °C 1015.8 hPa Calm     79% 0 mm 0 W/m2
00:08 0.9 °C -2.3 °C 1015.8 hPa Calm     79% 0 mm 0 W/m2
00:14 0.8 °C -2.4 °C 1015.8 hPa Calm     79% 0 mm 0 W/m2
00:20 0.8 °C -2.4 °C 1015.8 hPa Calm     79% 0 mm 0 W/m2
00:26 0.7 °C -2.3 °C 1015.5 hPa Calm     80% 0 mm 0 W/m2
00:32 0.7 °C -2.2 °C 1015.5 hPa Calm     81% 0 mm 0 W/m2
00:38 0.6 °C -2.3 °C 1015.5 hPa Calm     81% 0 mm 0 W/m2
00:44 0.6 °C -2.3 °C 1015.1 hPa Calm     81% 0 mm 0 W/m2
00:50 0.6 °C -2.3 °C 1015.1 hPa Calm     81% 0 mm 0 W/m2
00:56 0.7 °C -2.2 °C 1015.1 hPa Calm     81% 0 mm 0 W/m2
01:02 0.7 °C -2.1 °C 1015.1 hPa Calm     82% 0 mm 0 W/m2
01:08 0.6 °C -2.1 °C 1015.1 hPa Calm     82% 0 mm 0 W/m2
01:14 0.7 °C -2.1 °C 1015.1 hPa Calm     82% 0 mm 0 W/m2
01:20 0.6 °C -2.1 °C 1015.1 hPa Calm     82% 0 mm 0 W/m2
01:26 0.6 °C -2.1 °C 1015.1 hPa Calm     82% 0 mm 0 W/m2
01:32 0.6 °C -2.3 °C 1015.1 hPa Calm     81% 0 mm 0 W/m2
01:38 0.6 °C -2.3 °C 1015.1 hPa Calm     81% 0 mm 0 W/m2
01:44 0.6 °C -2.3 °C 1015.1 hPa Calm     81% 0 mm 0 W/m2
01:50 0.6 °C -2.1 °C 1014.8 hPa Calm     82% 0 mm 0 W/m2
01:56 0.6 °C -2.1 °C 1014.8 hPa Calm     82% 0 mm 0 W/m2
02:02 0.6 °C -2.2 °C 1014.4 hPa Calm     82% 0 mm 0 W/m2
02:08 0.4 °C -2.1 °C 1014.4 hPa Calm     83% 0 mm 0 W/m2
02:14 0.5 °C -2.1 °C 1014.4 hPa Calm     83% 0 mm 0 W/m2
02:20 0.5 °C -2.1 °C 1014.1 hPa Calm     83% 0 mm 0 W/m2
02:26 0.5 °C -2.1 °C 1014.1 hPa Calm     83% 0 mm 0 W/m2
02:32 0.6 °C -2 °C 1014.1 hPa Calm     83% 0 mm 0 W/m2
02:38 0.5 °C -2.1 °C 1013.8 hPa Calm     83% 0 mm 0 W/m2
02:44 0.5 °C -2.1 °C 1013.8 hPa Calm     83% 0 mm 0 W/m2
02:50 0.4 °C -2.1 °C 1013.8 hPa Calm     83% 0 mm 0 W/m2
02:56 0.3 °C -2.2 °C 1013.8 hPa Calm     83% 0 mm 0 W/m2
03:02 0.3 °C -2.3 °C 1013.8 hPa Calm     83% 0 mm 0 W/m2
03:08 0.2 °C -2.2 °C 1013.4 hPa Calm     84% 0 mm 0 W/m2
03:14 0.2 °C -2.2 °C 1013.4 hPa Calm     84% 0 mm 0 W/m2
03:20 0.2 °C -2.2 °C 1013.4 hPa Calm     84% 0 mm 0 W/m2
03:26 0.2 °C -2.2 °C 1013.4 hPa Calm     84% 0 mm 0 W/m2
03:32 0.2 °C -2 °C 1013.4 hPa Calm     85% 0 mm 0 W/m2
03:38 0.2 °C -2 °C 1013.4 hPa Calm     85% 0 mm 0 W/m2
03:44 0.2 °C -2.2 °C 1013.4 hPa Calm     84% 0 mm 0 W/m2
03:50 0.2 °C -2.2 °C 1013.4 hPa Calm     84% 0 mm 0 W/m2
03:56 0.2 °C -2.2 °C 1013.4 hPa Calm     84% 0 mm 0 W/m2
04:02 0.2 °C -2.1 °C 1013.4 hPa Calm     85% 0 mm 0 W/m2
04:08 0.2 °C -2.1 °C 1013.4 hPa Calm     85% 0 mm 0 W/m2
04:14 0.2 °C -2.1 °C 1013.4 hPa Calm     85% 0 mm 0 W/m2
04:20 0.2 °C -2 °C 1013.4 hPa Calm     85% 0 mm 0 W/m2
04:26 0.2 °C -2 °C 1013.4 hPa Calm     85% 0 mm 0 W/m2
04:32 0.3 °C -1.9 °C 1013.4 hPa Calm     85% 0 mm 0 W/m2
04:38 0.2 °C -2.2 °C 1013.4 hPa Calm     84% 0 mm 0 W/m2
04:44 0.3 °C -2.1 °C 1013.4 hPa Calm     84% 0 mm 0 W/m2
04:50 0.3 °C -1.9 °C 1013.4 hPa Calm     85% 0 mm 0 W/m2
04:56 0.4 °C -2 °C 1013.4 hPa Calm     84% 0 mm 0 W/m2
05:02 0.4 °C -1.9 °C 1013.4 hPa Calm     84% 0 mm 0 W/m2
05:08 0.5 °C -1.9 °C 1013.4 hPa Calm     84% 0 mm 0 W/m2
05:14 0.5 °C -1.9 °C 1013.4 hPa Calm     84% 0 mm 0 W/m2
05:20 0.5 °C -1.9 °C 1013.4 hPa Calm     84% 0 mm 0 W/m2
05:26 0.4 °C -1.9 °C 1013.4 hPa Calm     84% 0 mm 0 W/m2
05:32 0.4 °C -1.9 °C 1013.4 hPa Calm     84% 0 mm 0 W/m2
05:38 0.4 °C -1.9 °C 1013.4 hPa Calm     84% 0 mm 0 W/m2
05:44 0.4 °C -1.9 °C 1013.4 hPa Calm     84% 0 mm 0 W/m2
05:50 0.4 °C -1.9 °C 1013.4 hPa Calm     84% 0 mm 0 W/m2
05:56 0.5 °C -1.9 °C 1013.4 hPa Calm     84% 0 mm 0 W/m2
06:02 0.4 °C -1.9 °C 1013.4 hPa Calm     84% 0 mm 0 W/m2
06:08 0.5 °C -1.9 °C 1013.4 hPa Calm     84% 0 mm 0 W/m2
06:14 0.5 °C -1.9 °C 1013.4 hPa Calm     84% 0 mm 0 W/m2
06:20 0.5 °C -1.9 °C 1013.4 hPa Calm     84% 0 mm 0 W/m2
06:26 0.5 °C -1.9 °C 1013.1 hPa Calm     84% 0 mm 0 W/m2
06:32 0.6 °C -1.8 °C 1013.1 hPa Calm     84% 0 mm 0 W/m2
06:38 0.5 °C -1.9 °C 1013.1 hPa Calm     84% 0 mm 0 W/m2
06:44 0.6 °C -1.8 °C 1013.1 hPa Calm     84% 0 mm 0 W/m2
06:50 0.6 °C -1.8 °C 1013.1 hPa Calm     84% 0 mm 0 W/m2
06:56 0.7 °C -1.7 °C 1013.1 hPa Calm     84% 0 mm 0 W/m2
07:02 0.7 °C -1.7 °C 1012.8 hPa Calm     84% 0 mm 0 W/m2
07:08 0.7 °C -1.7 °C 1012.8 hPa Calm     84% 0 mm 0 W/m2
07:14 0.7 °C -1.7 °C 1012.8 hPa Calm     84% 0 mm 0 W/m2
07:20 0.7 °C -1.7 °C 1012.8 hPa Calm     84% 0 mm 7 W/m2
07:26 0.7 °C -1.7 °C 1012.8 hPa Calm     84% 0 mm 7 W/m2
07:32 0.7 °C -1.7 °C 1012.8 hPa Calm     84% 0 mm 9 W/m2
07:38 0.8 °C -1.6 °C 1012.8 hPa Calm     84% 0 mm 11 W/m2
07:44 0.9 °C -1.5 °C 1012.8 hPa Calm     84% 0 mm 12 W/m2
07:50 0.9 °C -1.5 °C 1012.8 hPa Calm     84% 0 mm 16 W/m2
07:56 1 °C -1.4 °C 1012.8 hPa Calm     84% 0 mm 16 W/m2
08:02 1.1 °C -1.5 °C 1012.8 hPa Calm     83% 0 mm 21 W/m2
08:08 1.1 °C -1.4 °C 1012.8 hPa Calm     83% 0 mm 25 W/m2
08:14 1.3 °C -1.3 °C 1012.8 hPa Calm     83% 0 mm 25 W/m2
08:20 1.4 °C -1.2 °C 1012.8 hPa Calm     83% 0 mm 30 W/m2
08:26 1.6 °C -1 °C 1012.8 hPa Calm     83% 0 mm 37 W/m2
08:32 1.7 °C -1.1 °C 1012.8 hPa Calm     82% 0 mm 39 W/m2
08:38 1.8 °C -0.9 °C 1012.8 hPa Calm     82% 0 mm 40 W/m2
08:44 1.9 °C -1.1 °C 1012.8 hPa Calm     81% 0 mm 42 W/m2
08:50 2.1 °C -0.9 °C 1012.8 hPa Calm     81% 0 mm 60 W/m2
08:56 2.2 °C -0.9 °C 1012.8 hPa Calm     80% 0 mm 39 W/m2
09:02 2.4 °C -0.9 °C 1012.8 hPa Calm   1.6 km/h 79% 0 mm 62 W/m2
09:14 2.8 °C -0.7 °C 1012.8 hPa Calm   1.6 km/h 78% 0 mm 67 W/m2
09:20 2.9 °C -0.7 °C 1012.8 hPa Calm   1.6 km/h 77% 0 mm 114 W/m2
09:26 3.1 °C -0.7 °C 1012.8 hPa Calm   1.6 km/h 76% 0 mm 149 W/m2
09:32 3.4 °C -0.4 °C 1012.8 hPa WSW 1.6 km/h 4.8 km/h 76% 0 mm 193 W/m2
09:38 3.7 °C -0.3 °C 1012.8 hPa WSW 1.6 km/h 4.8 km/h 75% 0 mm 155 W/m2
09:44 3.8 °C -0.4 °C 1012.8 hPa SW 1.6 km/h 6.4 km/h 74% 0 mm 116 W/m2
09:50 3.8 °C -0.4 °C 1012.8 hPa SW 1.6 km/h 3.2 km/h 74% 0 mm 128 W/m2
10:02 4 °C -0.4 °C 1012.8 hPa SW 1.6 km/h 1.6 km/h 73% 0 mm 146 W/m2
10:08 4.2 °C -0.2 °C 1012.8 hPa SW 1.6 km/h 1.6 km/h 73% 0 mm 209 W/m2
10:14 4.4 °C -0.2 °C 1012.8 hPa SW 1.6 km/h 3.2 km/h 72% 0 mm 181 W/m2
10:20 4.4 °C -0.3 °C 1012.8 hPa SSW 1.6 km/h 3.2 km/h 71% 0 mm 179 W/m2
10:26 4.6 °C -0.3 °C 1012.8 hPa WSW 3.2 km/h 4.8 km/h 71% 0 mm 206 W/m2
10:32 4.6 °C -0.2 °C 1012.8 hPa West 4.8 km/h 4.8 km/h 71% 0 mm 200 W/m2
10:38 4.7 °C -0.2 °C 1012.8 hPa West 3.2 km/h 4.8 km/h 71% 0 mm 255 W/m2
10:44 4.8 °C 0 °C 1012.8 hPa WSW 3.2 km/h 3.2 km/h 71% 0 mm 251 W/m2
10:50 4.9 °C 0.1 °C 1012.8 hPa WNW 3.2 km/h 3.2 km/h 71% 0 mm 200 W/m2
10:56 4.9 °C 0.1 °C 1012.8 hPa West 3.2 km/h 6.4 km/h 71% 0 mm 135 W/m2
11:02 4.8 °C -0.1 °C 1012.8 hPa NW 4.8 km/h 8 km/h 71% 0 mm 169 W/m2
11:08 4.7 °C 0.1 °C 1012.8 hPa WNW 4.8 km/h 8 km/h 72% 0 mm 132 W/m2
11:14 4.7 °C 0.1 °C 1012.8 hPa WSW 3.2 km/h 4.8 km/h 72% 0 mm 160 W/m2
11:20 4.6 °C 0 °C 1012.8 hPa NW 3.2 km/h 3.2 km/h 72% 0 mm 88 W/m2
11:26 4.6 °C 0.1 °C 1012.8 hPa West 3.2 km/h 4.8 km/h 73% 0 mm 107 W/m2
11:32 4.6 °C 0.1 °C 1012.8 hPa West 4.8 km/h 4.8 km/h 73% 0 mm 144 W/m2
11:38 4.6 °C 0.2 °C 1012.8 hPa SSW 3.2 km/h 4.8 km/h 73% 0 mm 148 W/m2
11:44 4.7 °C 0.3 °C 1012.4 hPa SW 3.2 km/h 4.8 km/h 73% 0 mm 237 W/m2
11:50 4.8 °C 0.3 °C 1012.8 hPa WSW 3.2 km/h 3.2 km/h 73% 0 mm 202 W/m2
11:56 4.9 °C 0.4 °C 1012.8 hPa WSW 3.2 km/h 4.8 km/h 73% 0 mm 218 W/m2
12:02 4.9 °C 0.3 °C 1012.8 hPa WSW 3.2 km/h 4.8 km/h 72% 0 mm 258 W/m2
12:08 4.9 °C 0.3 °C 1012.4 hPa West 4.8 km/h 8 km/h 72% 0 mm 281 W/m2
12:12 5.1 °C 0.4 °C 1012.4 hPa WSW 4.8 km/h 8 km/h 72% 0 mm 373 W/m2
12:18 5.2 °C 0.6 °C 1012.4 hPa WSW 4.8 km/h 8 km/h 72% 0 mm 253 W/m2
12:24 5.3 °C 0.4 °C 1012.4 hPa WSW 4.8 km/h 8 km/h 71% 0 mm 287 W/m2
12:30 5.3 °C 0.6 °C 1012.4 hPa West 4.8 km/h 9.7 km/h 72% 0 mm 292 W/m2
12:36 5.2 °C 0.6 °C 1012.4 hPa SW 6.4 km/h 9.7 km/h 72% 0 mm 169 W/m2
12:42 5 °C 0.4 °C 1012.4 hPa WSW 6.4 km/h 6.4 km/h 72% 0 mm 185 W/m2
12:48 5.1 °C 0.6 °C 1012.4 hPa West 6.4 km/h 6.4 km/h 73% 0 mm 264 W/m2
12:54 5.2 °C 0.8 °C 1012.4 hPa West 4.8 km/h 6.4 km/h 73% 0 mm 227 W/m2
13:00 5.3 °C 0.9 °C 1012.4 hPa West 4.8 km/h 4.8 km/h 73% 0 mm 301 W/m2
13:06 5.6 °C 0.9 °C 1012.4 hPa NW 3.2 km/h 6.4 km/h 72% 0 mm 220 W/m2
13:12 5.7 °C 0.8 °C 1012.4 hPa WNW 4.8 km/h 8 km/h 71% 0 mm 364 W/m2
13:18 5.7 °C 0.7 °C 1012.4 hPa West 6.4 km/h 8 km/h 70% 0 mm 390 W/m2
13:24 5.7 °C 0.4 °C 1012.4 hPa West 8 km/h 9.7 km/h 69% 0 mm 297 W/m2
13:30 5.6 °C 0.2 °C 1012.1 hPa NW 8 km/h 8 km/h 68% 0 mm 272 W/m2
13:36 5.7 °C 0.2 °C 1012.1 hPa NW 8 km/h 17.7 km/h 68% 0 mm 318 W/m2
13:42 5.8 °C 0.1 °C 1012.1 hPa West 8 km/h 11.3 km/h 67% 0 mm 338 W/m2
13:48 5.9 °C 0.3 °C 1012.1 hPa West 8 km/h 12.9 km/h 67% 0 mm 401 W/m2
13:54 5.9 °C 0.1 °C 1012.1 hPa WNW 8 km/h 14.5 km/h 66% 0 mm 371 W/m2
14:00 5.9 °C 0.1 °C 1012.1 hPa WNW 9.7 km/h 9.7 km/h 66% 0 mm 329 W/m2
14:06 6 °C 0.1 °C 1011.7 hPa WNW 8 km/h 9.7 km/h 66% 0 mm 330 W/m2
14:12 6.2 °C 0.1 °C 1011.7 hPa NW 6.4 km/h 6.4 km/h 65% 0 mm 329 W/m2
14:18 6.3 °C 0 °C 1011.7 hPa WNW 6.4 km/h 8 km/h 64% 0 mm 308 W/m2
14:24 6.3 °C 0.2 °C 1011.7 hPa NW 6.4 km/h 9.7 km/h 65% 0 mm 287 W/m2
14:30 6.3 °C 0.2 °C 1011.7 hPa NW 6.4 km/h 6.4 km/h 65% 0 mm 288 W/m2
14:36 6.4 °C 0.3 °C 1011.7 hPa NW 6.4 km/h 8 km/h 65% 0 mm 244 W/m2
14:42 6.6 °C 0.2 °C 1011.4 hPa WNW 6.4 km/h 9.7 km/h 64% 0 mm 276 W/m2
14:48 6.6 °C 0.2 °C 1011.4 hPa WNW 6.4 km/h 9.7 km/h 64% 0 mm 255 W/m2
15:00 7.1 °C 0.6 °C 1011.1 hPa WNW 4.8 km/h 4.8 km/h 63% 0 mm 244 W/m2
15:06 7.1 °C 0.5 °C 1011.1 hPa WNW 4.8 km/h 8 km/h 63% 0 mm 269 W/m2
15:12 7.4 °C 0.6 °C 1011.1 hPa NW 3.2 km/h 4.8 km/h 62% 0 mm 311 W/m2
15:16 7.5 °C 0.7 °C 1011.1 hPa WNW 3.2 km/h 4.8 km/h 62% 0 mm 323 W/m2
15:22 7.6 °C 0.7 °C 1010.7 hPa WNW 4.8 km/h 4.8 km/h 62% 0 mm 276 W/m2
15:28 8.4 °C 1.1 °C 1010.7 hPa WNW 4.8 km/h 4.8 km/h 60% 0 mm 816 W/m2
15:34 8.7 °C 0.8 °C 1010.7 hPa WNW 4.8 km/h 4.8 km/h 58% 0 mm 837 W/m2
15:40 8.6 °C 0.8 °C 1010.7 hPa West 4.8 km/h 8 km/h 58% 0 mm 304 W/m2
15:46 9.1 °C 0.7 °C 1010.7 hPa WNW 6.4 km/h 8 km/h 56% 0 mm 721 W/m2
15:52 9.3 °C 0.9 °C 1010.7 hPa West 4.8 km/h 6.4 km/h 56% 0 mm 698 W/m2
15:58 9 °C 0.4 °C 1010.7 hPa NW 4.8 km/h 6.4 km/h 55% 0 mm 729 W/m2
16:04 8.8 °C 0.3 °C 1010.7 hPa WNW 8 km/h 8 km/h 55% 0 mm 642 W/m2
16:10 9.1 °C 0.5 °C 1010.7 hPa NW 6.4 km/h 6.4 km/h 55% 0 mm 635 W/m2
16:16 9 °C 0.2 °C 1010.7 hPa WNW 4.8 km/h 6.4 km/h 54% 0 mm 619 W/m2
16:22 8.9 °C -0.2 °C 1010.7 hPa West 6.4 km/h 6.4 km/h 53% 0 mm 568 W/m2
16:28 8.8 °C -0.5 °C 1010.4 hPa WNW 6.4 km/h 12.9 km/h 52% 0 mm 589 W/m2
16:34 8.9 °C -0.7 °C 1010.4 hPa WNW 6.4 km/h 9.7 km/h 51% 0 mm 591 W/m2
16:40 8.9 °C -0.7 °C 1010.4 hPa WSW 8 km/h 8 km/h 51% 0 mm 504 W/m2
16:46 8.9 °C -0.9 °C 1010 hPa WNW 6.4 km/h 9.7 km/h 50% 0 mm 475 W/m2
16:52 9.2 °C -1.6 °C 1010 hPa SSW 4.8 km/h 4.8 km/h 47% 0 mm 432 W/m2
16:58 9.3 °C -1.7 °C 1010 hPa WNW 4.8 km/h 6.4 km/h 46% 0 mm 413 W/m2
17:04 9.1 °C -2.6 °C 1010 hPa West 4.8 km/h 6.4 km/h 44% 0 mm 397 W/m2
17:10 9 °C -2.6 °C 1010 hPa West 6.4 km/h 9.7 km/h 44% 0 mm 380 W/m2
17:16 9.2 °C -2.4 °C 1010 hPa WNW 4.8 km/h 9.7 km/h 44% 0 mm 359 W/m2
17:22 9.1 °C -2.5 °C 1010 hPa West 4.8 km/h 11.3 km/h 44% 0 mm 338 W/m2
17:28 9 °C -2.6 °C 1010 hPa WNW 6.4 km/h 11.3 km/h 44% 0 mm 322 W/m2
17:34 9 °C -2.9 °C 1010 hPa West 4.8 km/h 12.9 km/h 43% 0 mm 299 W/m2
17:40 9 °C -2.6 °C 1010 hPa West 6.4 km/h 6.4 km/h 44% 0 mm 283 W/m2
17:46 9.1 °C -2.9 °C 1010 hPa West 4.8 km/h 6.4 km/h 43% 0 mm 265 W/m2
17:52 9.2 °C -3.1 °C 1010 hPa WNW 3.2 km/h 4.8 km/h 42% 0 mm 241 W/m2
17:58 9.1 °C -2.8 °C 1010 hPa SW 3.2 km/h 4.8 km/h 43% 0 mm 221 W/m2
18:04 9.1 °C -3.2 °C 1010 hPa West 3.2 km/h 4.8 km/h 42% 0 mm 206 W/m2
18:10 8.9 °C -3.3 °C 1010 hPa WSW 4.8 km/h 4.8 km/h 42% 0 mm 172 W/m2
18:16 9.1 °C -3.2 °C 1009.7 hPa WSW 3.2 km/h 4.8 km/h 42% 0 mm 165 W/m2
18:22 9.1 °C -3.8 °C 1009.7 hPa WNW 1.6 km/h 3.2 km/h 40% 0 mm 142 W/m2
18:28 9 °C -3.9 °C 1009.7 hPa WSW 3.2 km/h 4.8 km/h 40% 0 mm 113 W/m2
18:34 8.8 °C -3.8 °C 1009.7 hPa WSW 3.2 km/h 3.2 km/h 41% 0 mm 47 W/m2
18:40 8.6 °C -3.7 °C 1009.7 hPa WSW 1.6 km/h 1.6 km/h 42% 0 mm 30 W/m2
18:46 8.3 °C -3.9 °C 1009.7 hPa Calm   3.2 km/h 42% 0 mm 30 W/m2
18:52 8.1 °C -3.7 °C 1009.7 hPa WSW 1.6 km/h 1.6 km/h 43% 0 mm 46 W/m2
18:58 8.1 °C -4.1 °C 1009.7 hPa SW 3.2 km/h 8 km/h 42% 0 mm 28 W/m2
19:04 7.9 °C -3.9 °C 1009.7 hPa SW 4.8 km/h 4.8 km/h 43% 0 mm 14 W/m2
19:10 7.7 °C -3.6 °C 1009.7 hPa SSW 1.6 km/h 1.6 km/h 45% 0 mm 9 W/m2
19:16 7.4 °C -3.2 °C 1009.7 hPa SW 3.2 km/h 4.8 km/h 47% 0 mm 5 W/m2
19:22 7.3 °C -2.7 °C 1009.7 hPa WSW 3.2 km/h 3.2 km/h 49% 0 mm 0 W/m2
19:28 7.1 °C -2.6 °C 1009.7 hPa SSW 3.2 km/h 9.7 km/h 50% 0 mm 0 W/m2
19:34 6.9 °C -2.5 °C 1009.7 hPa WSW 3.2 km/h 3.2 km/h 51% 0 mm 0 W/m2
19:40 6.8 °C -2.6 °C 1009.7 hPa SW 1.6 km/h 1.6 km/h 51% 0 mm 0 W/m2
19:46 6.6 °C -2.6 °C 1009.7 hPa SW 1.6 km/h 4.8 km/h 52% 0 mm 0 W/m2
19:52 6.4 °C -2.8 °C 1009.7 hPa SW 1.6 km/h 1.6 km/h 52% 0 mm 0 W/m2
19:58 6.3 °C -2.6 °C 1009.7 hPa South 1.6 km/h 1.6 km/h 53% 0 mm 0 W/m2
20:04 6.3 °C -2.6 °C 1009.7 hPa South 1.6 km/h 1.6 km/h 53% 0 mm 0 W/m2
20:10 6.2 °C -2.7 °C 1009.7 hPa Calm     53% 0 mm 0 W/m2
20:16 6.2 °C -2.7 °C 1009.7 hPa South 1.6 km/h 3.2 km/h 53% 0 mm 0 W/m2
20:22 6.1 °C -2.8 °C 1009.7 hPa SSW 1.6 km/h 1.6 km/h 53% 0 mm 0 W/m2
20:28 5.9 °C -2.7 °C 1009.7 hPa SW 1.6 km/h 3.2 km/h 54% 0 mm 0 W/m2
20:34 5.8 °C -3.3 °C 1010 hPa West 3.2 km/h 4.8 km/h 52% 0 mm 0 W/m2
20:40 5.9 °C -3.4 °C 1010 hPa West 3.2 km/h 4.8 km/h 51% 0 mm 0 W/m2
20:46 6.4 °C -3.8 °C 1010.4 hPa West 8 km/h 17.7 km/h 48% 0 mm 0 W/m2
20:52 5.9 °C -3.4 °C 1010.7 hPa WNW 12.9 km/h 25.7 km/h 51% 0 mm 0 W/m2
20:58 5.6 °C -3.3 °C 1011.1 hPa NW 12.9 km/h 25.7 km/h 53% 0 mm 0 W/m2
21:04 5.3 °C -3.3 °C 1011.1 hPa North 11.3 km/h 12.9 km/h 54% 0 mm 0 W/m2
21:10 5 °C -3.3 °C 1011.1 hPa NW 9.7 km/h 9.7 km/h 55% 0 mm 0 W/m2
21:16 4.8 °C -3.4 °C 1011.1 hPa WNW 11.3 km/h 12.9 km/h 55% 0 mm 0 W/m2
21:22 4.6 °C -3.4 °C 1011.4 hPa WNW 9.7 km/h 12.9 km/h 56% 0 mm 0 W/m2
21:28 4.4 °C -3.6 °C 1011.4 hPa North 9.7 km/h 12.9 km/h 56% 0 mm 0 W/m2
21:34 4.2 °C -3.8 °C 1011.7 hPa WNW 9.7 km/h 12.9 km/h 56% 0 mm 0 W/m2
21:40 4.1 °C -3.9 °C 1011.7 hPa WNW 8 km/h 8 km/h 56% 0 mm 0 W/m2
21:46 3.9 °C -4.1 °C 1011.7 hPa WNW 8 km/h 12.9 km/h 56% 0 mm 0 W/m2
21:54 3.8 °C -4.2 °C 1011.7 hPa NW 9.7 km/h 12.9 km/h 56% 0 mm 0 W/m2
22:00 3.6 °C -4.4 °C 1011.7 hPa WNW 8 km/h 14.5 km/h 56% 0 mm 0 W/m2
22:06 3.6 °C -4.4 °C 1011.7 hPa WNW 8 km/h 14.5 km/h 56% 0 mm 0 W/m2
22:12 3.4 °C -4.1 °C 1011.7 hPa WNW 6.4 km/h 8 km/h 58% 0 mm 0 W/m2
22:18 3.3 °C -4.2 °C 1012.1 hPa WNW 6.4 km/h 8 km/h 58% 0 mm 0 W/m2
22:24 3.2 °C -4.1 °C 1012.1 hPa West 4.8 km/h 6.4 km/h 59% 0 mm 0 W/m2
22:30 3.2 °C -3.8 °C 1012.1 hPa NW 4.8 km/h 11.3 km/h 60% 0 mm 0 W/m2
22:36 3.1 °C -3.9 °C 1012.1 hPa West 6.4 km/h 11.3 km/h 60% 0 mm 0 W/m2
22:42 3 °C -3.8 °C 1012.1 hPa WSW 6.4 km/h 17.7 km/h 61% 0 mm 0 W/m2
22:54 2.8 °C -3.9 °C 1012.1 hPa NW 6.4 km/h 14.5 km/h 61% 0 mm 0 W/m2
23:06 2.7 °C -4.1 °C 1012.1 hPa West 8 km/h 8 km/h 61% 0 mm 0 W/m2
23:12 2.6 °C -4.2 °C 1012.1 hPa WNW 6.4 km/h 8 km/h 61% 0 mm 0 W/m2
23:18 2.4 °C -4.1 °C 1012.1 hPa NW 6.4 km/h 8 km/h 62% 0 mm 0 W/m2
23:24 2.3 °C -4 °C 1012.1 hPa WNW 6.4 km/h 6.4 km/h 63% 0 mm 0 W/m2
23:30 2.3 °C -4.1 °C 1012.4 hPa NW 6.4 km/h 6.4 km/h 63% 0 mm 0 W/m2
23:36 2.2 °C -3.9 °C 1012.4 hPa WNW 8 km/h 9.7 km/h 64% 0 mm 0 W/m2
23:42 2.2 °C -3.7 °C 1012.1 hPa WNW 6.4 km/h 6.4 km/h 65% 0 mm 0 W/m2
23:48 2.2 °C -3.7 °C 1012.1 hPa WSW 8 km/h 16.1 km/h 65% 0 mm 0 W/m2
23:54 2.2 °C -3.5 °C 1012.1 hPa WNW 8 km/h 8 km/h 66% 0 mm 0 W/m2
Country Meadow, Clay, NY, USA
Compliments of Weather Underground - 2 mb